Location: Chrome
(40.5765°N, 74.2163°W)
Time: 11:49:02
(UTC+00:00)

Cosmos 1627 Rocket - Pass Details

Date: 06 December 2019
Orbit: 951 x 1003 km, 82.9° (Epoch: 26 January)

Event Time Altitude Azimuth Distance (km) Brightness Sun altitude
Rises 23:36:30 0° 189° (S) 3,617 7.7 -23.4°
Reaches altitude 10° 23:38:59 10° 191° (S) 2,672 7.0 -23.8°
Maximum altitude 23:45:05 78° 278° (W) 975 4.5 -25.0°
Drops below altitude 10° 23:51:14 10° 5° (N) 2,688 6.7 -26.1°
Enters shadow 23:52:24 - 6° (N) 3,124 7.0 -26.4°
